Regional Weather Roundup
Issued by NWS Green Bay, WI

Home | Current Version | Previous Version | Graphics & Text | Print | Product List | Glossary Off
Versions: 1 2 3 4 5 6 7 8 9 10 11 12 13 14 15 16 17 18 19 20 21 22 23 24 25 26 27 28 29 30 31 32 33 34 35 36 37 38 39 40 41 42 43 44 45 46 47 48 49 50

000
ASUS43 KGRB 230859
RWRGRB

NORTH-CENTRAL AND NORTHEAST WISCONSIN REGIONAL WEATHER ROUNDUP
NATIONAL WEATHER SERVICE GREEN BAY WI
400 AM CDT WED APR 23 2014

WIZ005-009-010>012-018-019-231000-
NORTH CENTRAL WISCONSIN

CITY           SKY/WX    TMP DP  RH WIND       PRES   REMARKS
IRONWOOD       CLEAR     27  21  80 CALM      30.11S
MANITOWISH WTR NOT AVBL
ARBOR VITAE    NOT AVBL
EAGLE RIVER    NOT AVBL
LAND O LAKES   NOT AVBL
RHINELANDER    CLEAR     22  20  92 CALM      30.14R
PHILLIPS       NOT AVBL
ANTIGO         NOT AVBL
TOMAHAWK       NOT AVBL
MERRILL        NOT AVBL
$$

WIZ013-073-231000-
NORTHEAST WISCONSIN

CITY           SKY/WX    TMP DP  RH WIND       PRES   REMARKS
IRON MOUNTAIN  CLEAR     20  17  88 CALM      30.11F
MARINETTE      CLEAR     30  25  80 NW7       30.13S
$$

WIZ017-030-035>037-045-231000-
CENTRAL WISCONSIN

CITY           SKY/WX    TMP DP  RH WIND       PRES   REMARKS
MEDFORD        NOT AVBL
WAUSAU         CLEAR     29  25  85 CALM      30.13S
MOSINEE        NOT AVBL
MARSHFIELD     CLEAR     33  25  72 NE3       30.13S
WISC RAPIDS    CLEAR     29  25  85 CALM      30.15S
STEVENS POINT  NOT AVBL
WAUPACA        NOT AVBL
SHAWANO        NOT AVBL
CLINTONVILLE   NOT AVBL
$$

WIZ038-039-048-051-231000-
FOX VALLEY

CITY           SKY/WX    TMP DP  RH WIND       PRES   REMARKS
NWS GREEN BAY  CLEAR     33  27  78 NW5       30.15R
APPLETON       NOT AVBL
OSHKOSH        CLEAR     34  26  72 N3        30.14R
FOND DU LAC    CLEAR     30  27  88 CALM      30.15R
$$

WIZ022-050-052-231000-
EAST CENTRAL WISCONSIN

CITY           SKY/WX    TMP DP  RH WIND       PRES   REMARKS
STURGEON BAY   CLEAR     30  23  74 NW5       30.13S
MANITOWOC      NOT AVBL
SHEBOYGAN      CLEAR     33  26  75 N6        30.14R
$$

LMZ563-521-522-541>543-231000-
LAKESHORE

STATION/POSITION TIME  TEMP    WIND        PRES    VSBY  WAVE
                       AIR SEA DIR/SP/G                  HT/PER
                 (UTC) (F)     (DEG/KT/KT) (MB)    (MI)  (FT/S)
SHEBOYGAN LKSHOR 0800   36     280/  6/  7 1021.0R
KEWAUNEE LKSHORE 0800   30     310/  5/  7 1021.1R
NORTHPORT PIER   0800   32     300/ 10/ 12 1020.0S
SISTER BAY LKSHO 0800   31      10/  8/  9   N/A
MENOMINEE LKSHOR 0800   31     310/  8/  9 1020.9R
$$



USA.gov is the U.S. government's official web portal to all federal, state and local government web resources and services.